カタログに戻る

GLOBALSTAR M023

運用中通信LEO
NORAD 25621·PAYLOAD·🇺🇸 United States

打ち上げ Feb 9, 1999 から Baikonur Cosmodrome

Loading…

次のパス (今後24時間)

TLE

最新Source: Space-Track

元期: Sep 14, 2026, 20:30 UTC

1 25621U 99004A   26257.85426062 -.00000085  00000-0  10609-3 0  9996
2 25621  52.0092 108.9315 0010520  54.4149 330.5275 12.62534403273162

AllMySatでGLOBALSTAR M023をリアルタイム追跡

Download on the App Store